Flag for U.S.A. Weather past 2 weeks in Norwalk, California, U.S.A.

Now
81 °F

Sunny.


Feels Like: 82 °F
Forecast: 65 / 83 °F
Wind: 6 mph from North

Location: Fullerton Municipal Airport

Current Time: Aug 21, 2014 at 7:10:58 PM

Latest Report: Aug 21, 2014 at 5:53 PM


Visibility: 10 mi

Pressure: 29.87 "Hg

Humidity: 51%

Dew point: 61 °F

Location of NorwalkLocation

Historic Weather in Norwalk — Graph

°F

Norwalk temperature yesterday

Maximum temperature yesterday: 83 °F (at 12:53 PM)
Minimum temperature yesterday: 69 °F (at 1:53 AM)
Average temperature yesterday: 74 °F

Past Weeks' High & Low Weather Summary

 TemperatureHumidityPressure
High95 °F (Aug 15, 3:53 PM)87% (Aug 18, 6:53 AM)30.00 "Hg (Aug 18, 6:53 AM)
Low65 °F (Aug 7, 2:53 AM)18% (Aug 16, 3:53 PM)29.78 "Hg (Aug 18, 4:53 PM)
Average75 °F62%29.91 "Hg
* Reported Aug 6 5:53 PM — Aug 21 5:53 PM, Norwalk, Weather by CustomWeather, © 2014

Note: Actual official high and low records may vary slightly from our data, if they occured in-between our weather recording intervals... More about our weather records

Advertising

Norwalk weather history for previous 24 hours

 ConditionsComfort  
Time TempWeatherWind HumidityBarometerVisibility
5:53 PM
Aug 21
81 °FSunny.6 mph51%29.87 "Hg10 mi
4:53 PM85 °FSunny.8 mph45%29.85 "Hg10 mi
3:53 PM87 °FSunny.7 mph42%29.86 "Hg10 mi
2:53 PM85 °FSunny.9 mph45%29.88 "Hg10 mi
1:53 PM84 °FSunny.9 mph46%29.90 "Hg10 mi
12:53 PM82 °FSunny.9 mph51%29.92 "Hg10 mi
11:53 AM83 °FSunny.7 mph48%29.93 "Hg10 mi
10:53 AM79 °FSunny.No wind54%29.95 "Hg10 mi
9:53 AM76 °FSunny.3 mph60%29.94 "Hg10 mi
8:53 AM73 °FSunny.3 mph66%29.94 "Hg10 mi
7:53 AM70 °FSunny.3 mph73%29.93 "Hg10 mi
6:53 AM68 °FClear.No wind76%29.93 "Hg10 mi
5:53 AM67 °FClear.No wind79%29.90 "Hg10 mi
4:53 AM67 °FClear.No wind79%29.90 "Hg10 mi
3:53 AM68 °FClear.No wind76%29.91 "Hg10 mi
2:53 AM68 °FClear.No wind76%29.91 "Hg10 mi
1:53 AM68 °FClear.No wind76%29.90 "Hg10 mi
12:53 AM69 °FClear.3 mph73%29.91 "Hg10 mi
11:53 PM
Aug 20
69 °FClear.3 mph76%29.92 "Hg10 mi
10:53 PM71 °FClear.3 mph68%29.91 "Hg10 mi
9:53 PM71 °FClear.6 mph68%29.90 "Hg10 mi
8:53 PM73 °FClear.3 mph66%29.88 "Hg10 mi
7:53 PM74 °FSunny.5 mph60%29.87 "Hg10 mi
Weather by CustomWeather, © 2014

See weather overviewHow to use our weather pages